Theta_e
322 323 322 322 321 321 322 322 323 323 324 325 325 325 326 326 324 323 321 330 335 343 339 334 337 336 333 330 331 331 316 312 314 315 318 325 322 326 329 326 325 326 326 331 338
321 322 322 321 321 321 321 321 322 322 323 324 325 325 325 326 322 321 333 346 344 346 329 329 326 330 326 328 328 322 314 314 320 322 320 322 323 325 326 325 326 326 329 332 332
321 321 321 320 320 320 320 320 321 322 323 323 324 325 325 324 322 324 339 347 345 344 329 329 328 329 322 327 323 323 316 319 321 324 325 323 325 328 325 322 326 325 327 329 330
320 321 320 319 320 319 319 320 321 322 322 323 325 325 326 325 315 326 345 349 348 334 329 326 327 324 321 322 321 318 322 323 322 324 324 323 326 324 326 327 331 330 330 330 329
319 319 319 319 319 319 319 319 320 320 321 323 326 325 321 322 324 331 347 343 332 329 326 326 323 325 321 323 324 320 324 325 326 326 325 327 324 325 326 332 334 333 330 329 329
318 318 318 318 318 318 318 317 318 318 320 324 327 323 322 316 335 332 331 330 329 330 327 328 325 328 324 322 320 323 320 320 325 326 326 324 324 327 329 333 333 332 330 329 329
318 317 317 317 317 317 317 317 317 318 321 326 328 324 321 322 334 336 335 331 331 327 323 326 328 327 325 321 326 324 316 320 322 323 323 324 316 320 331 332 331 331 331 330 329
317 316 316 316 317 317 317 317 317 320 324 328 329 323 320 331 334 333 333 330 329 328 327 328 328 326 325 327 322 319 320 310 321 322 325 326 313 324 333 331 329 331 331 330 330
317 316 316 316 316 317 316 316 318 323 327 328 324 322 320 328 326 331 332 327 328 328 328 328 327 324 324 317 314 317 310 312 316 322 323 320 317 322 332 329 329 330 332 332 332
316 315 315 315 316 315 314 316 326 323 323 325 325 319 323 321 327 329 332 329 325 325 324 324 323 319 318 314 306 311 311 312 311 319 319 318 320 325 328 328 327 328 330 331 332
316 315 314 315 315 314 314 323 320 319 322 316 317 321 323 326 329 326 329 327 325 321 314 320 315 312 314 317 317 316 313 312 316 320 318 317 318 320 325 327 327 328 328 329 329
316 315 315 314 314 313 318 317 316 317 312 319 319 320 322 325 319 322 328 321 320 314 318 316 313 317 317 317 317 314 313 312 316 319 318 318 314 317 322 322 328 327 328 328 329
314 314 314 314 313 317 321 317 321 322 313 317 318 318 319 322 318 320 324 321 317 316 316 314 315 318 316 315 315 315 313 311 313 317 318 318 314 316 319 321 323 329 330 328 328
313 313 314 312 314 319 318 321 322 324 309 312 313 316 319 321 316 325 325 320 317 314 316 315 319 316 314 313 316 310 317 316 314 313 305 316 305 314 315 316 319 325 326 326 328
313 313 313 312 317 316 319 321 321 322 301 314 314 321 320 316 318 320 326 321 314 314 314 312 314 315 314 313 315 312 319 316 316 313 309 312 309 311 317 313 316 324 327 327 328
312 313 312 314 319 321 322 321 320 308 303 310 312 311 313 315 316 319 319 322 321 315 316 313 319 317 316 317 316 319 315 317 315 312 304 310 309 309 313 317 320 325 327 327 327
312 312 310 317 314 321 321 318 309 305 315 310 309 311 310 311 313 316 313 314 311 307 307 311 312 316 317 313 317 316 313 305 302 303 302 312 309 310 316 320 322 325 326 327 327
310 309 314 321 321 320 320 313 305 311 311 313 311 310 307 311 312 313 311 310 315 313 309 306 304 314 319 314 312 312 314 306 298 300 303 311 307 309 318 319 319 328 329 329 327
308 319 321 325 325 322 315 309 311 312 314 311 310 307 307 310 311 312 312 311 312 315 309 307 307 317 317 318 317 312 309 316 310 311 305 307 311 316 318 319 324 326 327 326 327
312 317 318 327 328 320 313 307 313 316 315 314 306 309 307 309 309 310 310 314 312 316 317 312 307 315 315 317 317 314 318 308 308 300 298 304 308 308 316 319 321 324 324 325 326
316 315 324 326 325 316 308 313 314 317 316 314 315 308 309 309 311 309 310 313 315 314 316 314 316 311 315 313 313 312 310 314 310 309 301 300 304 317 316 322 322 323 325 325 324
315 309 326 326 311 312 309 315 307 315 317 316 318 317 313 311 309 309 309 312 318 317 312 316 315 308 311 317 318 317 312 316 307 307 308 307 303 319 319 319 325 325 326 326 326
313 314 324 323 307 309 314 314 315 315 317 316 315 319 319 315 309 311 315 320 320 316 316 321 314 306 307 311 316 313 316 314 315 319 311 304 305 321 324 325 325 325 326 325 326
313 308 313 318 315 312 314 313 313 317 317 318 319 319 317 314 317 312 314 318 320 321 324 327 320 315 305 308 313 312 310 313 312 307 308 308 311 318 321 321 324 325 326 325 325
314 311 318 312 311 312 316 316 313 313 317 319 317 318 316 314 314 313 316 318 320 317 319 328 315 314 313 313 312 310 310 311 310 311 308 310 312 317 320 321 322 325 327 326 325
312 313 316 316 318 317 310 313 314 315 315 315 315 318 318 318 314 318 317 317 317 320 322 327 316 316 312 315 314 310 313 313 312 313 313 315 314 321 323 324 323 323 325 324 325
318 319 314 312 314 312 313 313 314 318 318 319 319 318 317 320 324 325 324 327 317 314 323 320 319 316 307 308 308 308 309 309 312 314 314 311 317 322 321 323 324 325 326 327 328
Wind_Speed
17 15 16 19 18 19 19 19 17 17 15 14 14 11 10 11 13 7 11 6 3 15 4 12 14 20 21 18 7 8 11 9 7 13 12 7 13 12 1 14 10 7 12 10 12
19 17 17 17 20 19 19 19 18 18 16 15 13 11 9 8 9 17 2 5 7 11 9 14 16 12 19 12 4 7 10 8 5 10 11 5 11 10 8 9 11 11 13 10 9
22 21 18 18 19 20 20 19 20 17 16 14 12 10 9 9 11 7 4 5 9 10 11 16 17 16 9 5 15 14 8 14 5 8 6 9 9 2 3 10 9 6 15 11 9
20 22 21 20 19 20 20 20 20 18 17 14 11 9 7 6 6 6 5 5 5 9 11 16 19 7 12 8 7 1 8 6 6 9 5 5 3 1 1 12 8 8 14 12 10
18 20 22 21 21 19 21 20 19 19 16 13 10 8 6 9 7 8 7 6 9 10 16 14 14 20 13 9 15 14 12 6 6 5 2 5 6 3 6 10 12 7 10 11 9
19 20 21 22 22 20 21 20 18 19 15 13 10 7 8 14 8 10 10 8 11 16 17 12 12 11 14 4 12 26 26 24 15 4 8 4 7 9 10 8 13 7 9 10 10
19 21 22 23 22 22 21 20 18 18 17 11 9 7 9 11 2 12 12 11 12 9 13 15 15 16 9 11 18 19 11 22 25 5 7 14 9 11 11 5 10 9 8 8 10
18 21 22 24 24 24 23 21 19 17 15 10 7 9 9 4 4 6 8 12 9 12 14 13 12 16 14 9 16 4 13 11 15 2 6 13 16 24 3 7 7 10 8 9 8
20 21 22 25 25 25 25 25 19 13 9 10 6 9 13 3 9 11 9 13 10 11 12 11 11 15 8 4 13 6 11 18 11 1 6 5 9 21 10 7 7 9 8 7 9
20 22 24 25 26 25 27 19 1 6 7 10 11 7 11 11 8 4 8 9 10 13 16 18 16 14 10 13 9 21 18 9 11 21 11 5 18 19 13 10 9 3 6 6 10
22 22 24 26 27 24 16 8 4 6 12 13 4 13 10 12 5 7 8 9 9 10 15 19 9 9 10 7 10 15 3 12 16 11 11 15 21 27 4 13 8 7 6 6 0
22 24 26 27 28 28 8 8 8 9 10 16 14 13 4 9 7 11 11 9 11 13 19 14 11 7 12 14 7 10 18 7 10 12 4 24 19 14 14 21 7 9 4 7 9
22 23 26 29 29 12 8 7 8 10 8 13 15 13 8 7 13 13 12 12 16 17 17 13 10 6 11 11 4 4 13 14 21 21 31 11 10 13 19 19 31 10 7 12 10
21 22 24 30 6 12 9 8 9 7 7 11 14 14 12 10 13 18 13 11 17 19 18 15 12 6 12 12 9 14 10 16 16 12 5 18 2 5 14 17 24 13 12 9 11
22 22 23 6 12 8 11 11 10 5 7 16 16 12 14 13 12 13 4 7 16 19 20 19 17 13 13 10 11 14 22 16 16 3 3 13 7 4 7 12 21 15 12 9 12
22 21 19 2 7 14 11 12 8 7 4 8 10 11 16 14 16 4 5 4 11 13 18 21 24 15 11 14 12 8 14 14 6 3 3 16 8 4 8 8 8 16 12 7 11
25 27 10 9 8 13 11 9 7 8 5 9 14 14 17 18 18 11 4 11 10 6 12 17 19 22 18 16 9 3 5 8 6 5 3 15 16 10 10 24 9 15 10 9 10
29 30 7 9 10 11 8 9 8 3 6 5 3 14 15 15 17 9 9 16 13 16 16 15 18 12 17 14 8 14 7 3 6 12 16 10 9 7 3 15 33 15 12 8 9
30 7 8 10 8 5 7 8 10 13 11 8 6 12 12 13 12 16 17 16 13 20 15 12 19 19 4 7 7 7 9 3 8 18 4 10 10 5 7 13 10 12 12 7 5
10 10 10 7 1 5 6 12 13 4 5 9 8 8 13 17 14 13 12 10 14 16 4 11 13 15 6 4 10 12 8 11 7 7 14 7 16 11 10 10 10 11 11 8 4
6 6 7 3 4 6 9 12 5 5 5 8 14 2 9 10 13 12 7 11 6 10 6 6 6 15 10 14 22 9 7 5 2 4 4 9 6 11 8 8 10 9 8 11 9
6 6 7 4 7 7 12 10 3 11 4 7 6 11 4 2 5 10 17 8 7 4 4 7 2 9 10 22 19 10 2 12 4 3 10 10 4 10 12 23 8 11 11 7 5
6 9 4 5 7 10 14 9 4 8 7 4 6 5 3 4 2 10 11 7 5 4 2 2 3 3 11 17 14 5 12 4 2 4 8 5 4 7 0 9 14 11 9 8 3
6 5 8 7 10 14 13 12 11 10 7 8 11 5 5 4 4 6 10 5 4 0 4 1 4 9 7 10 6 12 4 3 3 4 9 9 13 13 15 12 9 7 7 10 9
6 5 5 3 9 13 11 12 10 9 9 8 8 12 5 7 11 12 8 10 8 4 5 3 5 12 9 7 9 10 4 6 4 3 5 9 15 13 12 14 14 14 6 7 7
7 6 8 12 11 11 3 9 14 12 2 11 11 14 3 3 5 5 15 12 9 5 7 3 6 12 9 16 16 9 14 16 5 7 13 13 7 12 14 14 15 14 5 11 7
7 7 6 9 10 9 11 13 15 13 7 12 11 10 6 6 8 14 18 6 21 20 6 1 6 8 8 17 28 11 5 17 9 12 10 8 11 14 13 15 16 16 12 14 13
Wind_Direction
353 352 346 339 340 336 334 335 336 332 330 320 313 313 312 317 297 236 262 103 167 162 176 250 224 246 249 261 238 231 262 56 96 116 118 207 114 105 144 110 66 69 75 101 113
347 351 348 342 335 336 333 332 332 330 329 323 317 316 318 329 275 265 325 133 147 156 238 263 286 11 337 283 264 209 74 49 37 42 98 121 78 109 186 159 134 150 114 114 138
342 343 347 340 336 332 330 331 328 331 327 322 318 316 314 303 275 215 156 262 171 184 273 294 302 110 270 321 25 335 71 132 120 19 356 96 126 120 279 79 81 89 122 133 145
339 338 340 337 334 330 329 329 327 328 323 318 314 306 313 251 295 107 164 216 179 242 272 271 2 319 224 119 151 204 94 0 86 147 269 354 36 176 7 100 82 94 120 139 160
339 335 332 333 328 330 324 326 324 320 318 312 309 299 266 237 245 136 149 177 203 242 257 288 188 237 271 55 158 217 38 307 147 201 191 27 262 191 214 118 114 117 130 149 172
336 333 330 328 324 326 321 322 320 314 311 304 302 308 250 265 99 149 183 179 255 244 294 286 335 338 305 29 17 68 19 317 310 182 188 211 341 336 105 127 131 149 151 166 162
337 331 328 326 324 321 320 318 315 308 300 291 297 287 269 278 85 167 210 223 248 290 297 326 331 316 331 15 37 102 164 273 279 124 126 85 353 311 115 164 152 161 165 178 168
335 330 329 324 322 320 319 317 308 299 290 283 294 270 266 157 321 202 213 249 262 276 280 293 325 303 286 28 350 277 195 99 240 9 157 97 183 271 146 147 178 162 182 183 195
336 328 329 324 322 321 321 311 293 282 264 292 253 228 244 110 219 231 224 251 281 272 272 277 275 271 290 308 298 174 39 15 353 159 102 123 150 204 193 126 154 177 181 185 193
338 332 330 322 320 324 322 291 295 296 225 256 263 238 261 244 213 240 209 251 276 310 308 267 257 249 298 163 290 55 16 36 311 281 345 56 122 132 127 139 142 118 137 202 191
336 335 326 322 320 322 337 300 278 198 235 249 239 223 217 214 56 222 209 234 270 289 283 285 286 23 348 343 340 2 152 226 235 265 329 78 59 348 88 118 138 181 119 95 62
333 331 325 324 316 313 276 0 21 324 297 280 253 247 327 1 224 241 211 230 240 256 270 262 312 34 326 317 34 16 325 229 332 342 245 82 108 206 9 5 74 76 106 61 65
331 328 325 321 314 292 316 2 319 331 267 250 222 228 211 226 254 213 197 231 257 255 268 292 257 48 306 317 221 45 309 342 348 38 7 22 67 19 16 5 301 153 119 66 67
327 325 325 325 302 336 297 344 342 360 270 206 198 217 213 198 243 259 185 241 266 270 286 298 297 274 283 321 337 323 347 30 351 44 123 251 234 52 116 222 273 89 66 52 69
326 323 321 315 311 305 352 323 336 276 256 135 183 208 201 197 228 223 297 220 252 286 315 301 301 310 299 319 1 314 353 2 303 88 52 293 124 212 248 220 266 100 82 44 66
321 317 329 213 235 259 312 318 284 235 229 151 131 184 194 196 241 9 205 242 289 292 302 308 300 288 289 301 319 346 335 310 31 195 15 269 37 342 246 233 108 96 84 51 68
320 310 301 300 277 333 319 289 237 255 121 150 174 191 201 194 210 199 203 249 236 272 272 272 287 295 272 271 267 295 335 339 312 296 58 357 80 68 351 18 7 96 83 66 49
319 308 221 240 286 291 301 270 261 305 41 50 182 170 202 194 209 174 213 248 209 229 270 281 294 259 261 242 272 295 114 215 300 319 300 19 87 24 47 113 255 102 93 64 52
311 291 248 240 223 302 275 252 281 5 20 316 204 183 202 191 211 207 214 235 227 243 237 275 283 325 217 352 326 310 312 215 302 270 308 109 117 24 55 287 115 90 87 66 67
315 291 250 118 18 255 259 262 288 354 314 270 243 225 200 197 197 207 210 222 260 283 266 294 295 303 66 6 281 263 42 20 2 38 297 357 53 14 344 65 32 89 72 59 36
265 270 105 178 195 239 247 262 320 43 306 287 329 208 263 210 186 217 225 236 179 277 256 262 262 291 308 5 338 295 87 95 75 260 251 302 119 339 346 335 32 11 66 52 14
288 260 115 187 240 230 249 276 19 279 191 273 301 312 309 3 183 210 230 210 88 309 268 232 296 297 20 349 347 335 274 167 275 357 322 312 31 268 96 271 69 24 59 86 34
279 297 149 216 252 241 237 269 236 280 281 287 233 310 11 314 237 257 117 105 116 225 312 30 231 254 1 351 337 325 279 359 309 242 260 301 55 218 332 14 26 36 36 86 54
276 262 203 209 262 289 293 253 229 197 271 279 302 268 210 232 239 254 122 119 118 196 85 32 279 278 192 197 204 253 270 152 118 274 323 29 36 30 16 15 30 5 352 34 322
245 258 17 254 228 250 254 301 262 235 216 223 249 250 217 250 187 208 168 142 147 143 169 274 282 307 319 295 235 297 309 333 337 306 348 341 53 14 16 4 10 19 43 333 15
300 345 354 299 300 302 248 266 273 259 257 230 244 295 187 316 349 0 344 187 65 195 188 195 290 304 296 337 322 260 16 344 246 17 7 9 21 33 17 2 7 334 357 10 33
8 325 276 297 280 261 257 241 259 269 323 285 302 281 242 30 20 132 252 73 137 226 198 246 311 330 329 54 331 304 9 321 4 15 350 344 11 21 3 8 351 345 21 21 0